Station Name: CARLOW (Oak Park)
Station Height: 61 M 
Latitude:52.861  ,Longitude: -6.915


date: -   09 to 09 utc
rain: -   Precipitation Amount (mm)
maxt: -   Maximum Temperature (C)
mint: -   Minimum Temperature (C)
gmin: -   09utc Grass Minimum Temperature (C)
soil: -   10cm Soil Temperature (C)
ind:  -	  Indicator

date,ind,rain,ind,maxt,ind,mint,gmin,soil
01-may-1967,0,0.600,0,7.5,4, , , 
02-may-1967,0,2.500,0,10.0,1,-1.0, ,8.0
03-may-1967,0,10.000,0,9.5,1,-1.5, ,6.5
04-may-1967,0,16.200,0,11.0,0,4.0, ,7.5
05-may-1967,0,6.600,0,13.0,0,5.0, ,8.0
06-may-1967,0,2.500,0,17.0,0,6.0, ,9.0
07-may-1967,1,10.200,0,12.5,0,5.5, ,9.0
08-may-1967,1,0.300,0,16.0,0,8.5, ,9.5
09-may-1967,0,0.000,0,15.5,0,5.0, ,9.5
10-may-1967,1,3.000,0,15.0,0,8.5, ,11.0
11-may-1967,1,0.600,0,11.5,0,7.5, ,10.0
12-may-1967,0,4.700,0,12.5,0,5.5, ,9.0
13-may-1967,0,5.500,0,10.0,0,8.0, ,9.4
14-may-1967,0,0.400,0,10.0,0,8.0, ,9.5
15-may-1967,0,4.000,0,7.0,0,6.0, ,8.0
16-may-1967,0,2.200,0,10.0,0,5.0, ,8.0
17-may-1967,0,0.500,0,11.5,0,5.0, ,8.0
18-may-1967,0,6.700,0,11.7,0,7.7, ,7.0
19-may-1967,0,3.100,0,14.5,0,7.0, ,9.9
20-may-1967,0,0.800,0,14.5,0,7.2, ,9.2
21-may-1967,0,10.300,0,12.4,0,6.5, ,9.2
22-may-1967,0,7.200,0,13.0,0,6.6, ,8.6
23-may-1967,0,4.700,0,15.0,0,7.5, ,9.4
24-may-1967,0,7.700,0,12.7,0,6.2, ,10.5
25-may-1967,0,4.500,0,14.0,0,6.3, ,9.7
26-may-1967,0,2.000,0,14.5,0,4.5, ,9.5
27-may-1967,0,3.600,0,14.0,0,4.5, ,9.5
28-may-1967,0,2.000,0,15.4,0,6.0, ,10.0
29-may-1967,0,3.600,0,15.5,0,4.4, ,10.6
30-may-1967,0,0.700,0,14.4,0,6.8, ,11.5
31-may-1967,0,0.000,0,18.7,0,3.4, ,11.7
01-jun-1967,0,0.000,0,15.3,0,6.5, ,12.0
02-jun-1967,0,0.000,0,16.0,0,10.2, ,13.4
03-jun-1967,0,0.000,0,20.2,0,11.5, ,13.5
04-jun-1967,0,0.000,0,19.0,0,13.0, ,14.5
05-jun-1967,0,0.800,0,20.2,0,7.3, ,13.5
06-jun-1967,0,0.000,0,21.7,0,13.6, ,15.5
07-jun-1967,0,0.000,0,16.4,0,7.7, ,14.0
08-jun-1967,0,0.000,0,16.2,0,6.7, ,13.2
09-jun-1967,0,0.000,0,17.7,0,4.4, ,13.5
10-jun-1967,0,0.000,0,18.6,0,11.0, ,15.4
11-jun-1967,0,0.000,0,20.6,0,6.0,4.3,15.3
12-jun-1967,0,0.000,0,20.7,0,6.0,4.2,16.2
13-jun-1967,0,0.000,0,21.5,0,4.5,2.7,16.3
14-jun-1967,0,0.000,0,22.5,0,6.5,2.8,17.0
15-jun-1967,0,0.000,0,22.6,0,8.8,6.3,17.8
16-jun-1967,0,0.000,0,22.4,0,11.7,10.5,18.5
17-jun-1967,0,0.000,0,24.5,0,10.8,8.5,18.5
18-jun-1967,0,0.000,0,21.8,0,10.6,9.5,18.2
19-jun-1967,4,0.000,0,19.3,0,10.0,8.6,18.0
20-jun-1967,0,0.000,0,19.0,0,12.8,11.8,17.2
21-jun-1967,0,3.000,0,17.0,0,8.3,5.5,16.5
22-jun-1967,0,1.900,0,18.5,0,12.0,10.9,16.2
23-jun-1967,0,0.500,0,16.2,0,2.6,-0.5,13.5
24-jun-1967,0,0.600,0,19.5,0,11.5,11.0,15.5
25-jun-1967,0,0.100,0,17.2,0,10.3,6.5,15.3
26-jun-1967,0,0.000,0,19.0,0,7.5,4.5,14.0
27-jun-1967,0,0.000,0,18.7,0,8.5,5.6,15.7
28-jun-1967,0,0.300,0,23.5,0,11.9,9.5,17.0
29-jun-1967,0,0.000,0,17.2,0,11.8,11.0,17.0
30-jun-1967,0,0.000,0,18.0,0,4.4,0.5,15.0
01-jul-1967,0,0.000,4, ,4, , ,16.2
02-jul-1967,0,5.300,4, ,4, , ,15.2
03-jul-1967,0,0.400,4, ,4, , ,14.0
04-jul-1967,0,0.000,4, ,4, , ,15.2
05-jul-1967,0,0.000,4, ,4, , ,17.0
06-jul-1967,0,0.400,4, ,4, , ,17.0
07-jul-1967,0,0.800,4, ,4, , ,16.2
08-jul-1967,0,0.000,4, ,4, , ,14.5
09-jul-1967,0,0.000,4, ,4, , ,15.0
10-jul-1967,0,0.000,4, ,4, , ,17.2
11-jul-1967,0,0.000,4, ,4, , ,19.5
12-jul-1967,0,6.000,4, ,4, , ,18.4
13-jul-1967,0,6.200,4, ,4, , ,18.5
14-jul-1967,0,0.700,4, ,4, , ,16.5
15-jul-1967,0,2.700,4, ,4, , ,16.7
16-jul-1967,0,2.300,4, ,4, , ,16.5
17-jul-1967,0,3.200,4, ,4, , ,16.0
18-jul-1967,0,5.400,4, ,4, , ,16.5
19-jul-1967,0,0.500,4, ,4, , ,16.2
20-jul-1967,4,0.000,4, ,4, , ,14.3
21-jul-1967,0,0.500,4, ,4, , ,15.5
22-jul-1967,0,0.000,4, ,4, , ,16.5
23-jul-1967,4,0.000,4, ,4, , ,17.2
24-jul-1967,0,2.100,4, ,4, , ,15.2
25-jul-1967,0,0.000,4, ,4, , ,16.0
26-jul-1967,0,0.600,4, ,4, , ,16.5
27-jul-1967,0,0.000,4, ,4, , ,16.2
28-jul-1967,0,3.100,4, ,4, , ,15.0
29-jul-1967,0,0.200,4, ,4, , ,15.0
30-jul-1967,0,2.500,4, ,4, , ,17.0
31-jul-1967,0,4.600,4, ,4, , ,16.4
01-aug-1967,0,0.000, , , , , , 
02-aug-1967,0,1.300, , , , , , 
03-aug-1967,0,3.600, , , , , , 
04-aug-1967,4,0.000, , , , , , 
05-aug-1967,4,0.000, , , , , , 
06-aug-1967,0,4.500, , , , , , 
07-aug-1967,0,6.500, , , , , , 
08-aug-1967,0,3.100, , , , , , 
09-aug-1967,0,6.000, , , , , , 
10-aug-1967,4,0.000, , , , , , 
11-aug-1967,0,3.100, , , , , , 
12-aug-1967,4,0.000, , , , , , 
13-aug-1967,0,6.100, , , , , , 
14-aug-1967,4,0.000, , , , , , 
15-aug-1967,0,0.500, , , , , , 
16-aug-1967,0,3.600, , , , , , 
17-aug-1967,0,1.800, , , , , , 
18-aug-1967,0,4.900, , , , , , 
19-aug-1967,4,0.000, , , , , , 
20-aug-1967,0,0.000, , , , , , 
21-aug-1967,0,0.000, , , , , , 
22-aug-1967,0,0.000, , , , , , 
23-aug-1967,0,0.000, , , , , , 
24-aug-1967,0,0.000, , , , , , 
25-aug-1967,0,1.700, , , , , , 
26-aug-1967,0,1.500, , , , , , 
27-aug-1967,4,0.000, , , , , , 
28-aug-1967,0,0.000, , , , , , 
29-aug-1967,0,0.000, , , , , , 
30-aug-1967,0,0.000, , , , , , 
31-aug-1967,0,0.300, , , , , , 
01-sep-1967,0,5.500,0,19.5,0,10.4,6.0,13.8
02-sep-1967,0,6.500,0,18.5,0,10.9,9.5,13.9
03-sep-1967,0,2.400,0,16.6,0,10.5,7.0,12.5
04-sep-1967,0,11.200,0,15.8,0,10.0,6.8,12.3
05-sep-1967,0,1.200,0,16.5,0,9.3,7.2,11.7
06-sep-1967,0,0.700,0,16.2,0,8.0,4.8,11.0
07-sep-1967,0,0.000,0,17.2,0,9.0,6.0,11.4
08-sep-1967,0,0.000,0,18.5,0,2.7,0.5,10.5
09-sep-1967,0,13.600,0,18.7,0,3.6,0.0,11.0
10-sep-1967,0,7.400,0,18.2,0,11.0,9.6,13.4
11-sep-1967,0,6.400,0,19.2,0,13.5,7.6,15.5
12-sep-1967,4,0.000,0,19.6,0,10.5,9.3,13.2
13-sep-1967,0,0.000,0,17.7,0,8.0,5.7,12.5
14-sep-1967,0,0.000,0,19.5,0,2.5,0.5,10.5
15-sep-1967,0,0.000,0,18.3,0,4.2,2.0,11.2
16-sep-1967,0,24.500,0,16.0,0,5.8,4.8,12.0
17-sep-1967,0,6.800,0,19.2,0,10.0,8.5,13.3
18-sep-1967,0,11.000,0,15.2,0,5.3,2.4,10.6
19-sep-1967,0,0.500,0,15.4,0,7.8,3.2,10.8
20-sep-1967,0,0.000,0,17.4,0,8.6,5.5,11.3
21-sep-1967,0,0.000,0,17.5,0,7.0,4.0,11.2
22-sep-1967,0,1.600,0,16.8,0,6.0,2.2,11.2
23-sep-1967,0,1.600,0,17.0,0,9.0,7.8,12.3
24-sep-1967,0,1.100,0,16.7,0,10.6,5.5,12.2
25-sep-1967,0,4.800,0,17.8,0,11.2,7.2,12.4
26-sep-1967,0,1.500,0,17.5,0,10.6,5.0,13.5
27-sep-1967,0,0.300,0,17.5,0,11.5,8.5,13.0
28-sep-1967,0,5.000,0,17.5,0,12.8,10.0,13.5
29-sep-1967,0,3.600,0,16.8,0,12.2,9.2,13.0
30-sep-1967,0,0.000,0,15.9,0,9.5,6.0,11.5
01-oct-1967,0,6.800,0,15.2,0,10.7,7.5,11.7
02-oct-1967,0,2.200,0,14.0,0,5.3,0.4,9.0
03-oct-1967,0,2.800,0,14.5,0,7.5,4.2,10.4
04-oct-1967,0,0.000,0,14.5,0,6.8,3.0,9.2
05-oct-1967,0,4.100,0,14.0,0,5.5, ,8.7
06-oct-1967,0,16.000,0,17.2,0,8.3,6.6,10.3
07-oct-1967,0,0.000,0,17.8,0,10.5,7.0,11.4
08-oct-1967,0,2.600,0,17.3,0,12.3,9.5,12.8
09-oct-1967,0,3.800,0,16.5,0,13.0,12.0,14.4
10-oct-1967,0,3.100,0,15.0,0,7.8,5.5,11.7
11-oct-1967,0,0.700,0,13.2,0,9.0,6.2,11.2
12-oct-1967,0,4.600,0,14.0,0,3.5, ,7.0
13-oct-1967,0,5.600,0,13.0,0,4.5,0.2,7.3
14-oct-1967,0,1.700,0,13.0,0,8.0,7.5,10.4
15-oct-1967,0,4.300,0,12.5,0,7.5,3.8,8.4
16-oct-1967,0,30.800,0,8.4,0,5.0,0.4,7.4
17-oct-1967,0,0.700,0,11.8,0,4.5,0.1,6.5
18-oct-1967,0,6.400,0,12.5,1,-1.5, ,3.5
19-oct-1967,0,6.000,0,15.0,0,1.9,0.0,9.0
20-oct-1967,4,0.000,0,14.0,0,9.0,5.8,8.7
21-oct-1967,0,0.800,0,12.8,0,3.5,-1.5,5.8
22-oct-1967,0,0.000,0,11.5,0,4.0,1.0,8.0
23-oct-1967,4,0.000,0,12.6,0,7.6,5.0,8.8
24-oct-1967,0,4.600,0,13.5,0,4.6,-0.9,6.5
25-oct-1967,0,0.700,0,14.0,0,7.2,5.4,10.6
26-oct-1967,4,0.000,0,12.4,0,7.2,3.5,7.4
27-oct-1967,0,8.500,0,10.6,0,5.3,0.5,5.2
28-oct-1967,0,0.000,0,9.5,0,2.7,-1.5,5.5
29-oct-1967,4,0.000,0,11.5,0,4.0,0.3,5.3
30-oct-1967,0,16.500,0,8.0,0,2.2,-2.3,4.5
31-oct-1967,0,3.500,0,10.4,0,4.6,2.3,5.5
01-nov-1967,0,12.600,0,9.6,0,1.0,0.0,5.7
02-nov-1967,0,1.800,0,9.4,0,3.8,2.0,5.7
03-nov-1967,0,0.000,0,9.0,0,2.5,-0.6,4.2
04-nov-1967,0,0.000,0,7.7,1,-3.5,-7.0,0.6
05-nov-1967,0,0.000,0,9.0,1,-1.4,-4.5,1.6
06-nov-1967,0,14.400,0,8.5,0,0.5,-3.5,1.7
07-nov-1967,0,2.900,0,10.8,1,-1.5,-2.0,4.5
08-nov-1967,0,0.500,0,8.4,1,-0.2,-1.0,3.6
09-nov-1967,0,0.000,0,10.3,0,0.1,0.7,4.8
10-nov-1967,0,0.000,0,13.0,0,3.5,-0.6,4.8
11-nov-1967,4,0.000,0,14.0,0,7.4,5.8,9.0
12-nov-1967,4,0.000,0,10.5,0,3.6,-0.5,5.5
13-nov-1967,0,1.400,0,12.4,0,4.5,3.0,8.0
14-nov-1967,4,0.000,0,9.5,0,3.0,-0.6,4.6
15-nov-1967,4,0.000,0,8.5,0,2.5,-0.6,3.0
16-nov-1967,0,0.000,0,7.5,1,-1.6,-4.7,2.0
17-nov-1967,0,0.000,0,9.2,1,-5.2, ,0.3
18-nov-1967,0,0.000,0,6.6,1,-5.4, ,-0.9
19-nov-1967,0,0.800,0,9.0,1,-4.5,-5.5,1.0
20-nov-1967,4,0.000,0,10.7,0,0.0,-0.5,5.0
21-nov-1967,4,0.000,0,10.4,0,7.0,4.0,6.5
22-nov-1967,0,0.000,0,8.4,1,-1.6,-4.5,3.0
23-nov-1967,4,0.000,0,10.5,0,2.8,-0.5,5.5
24-nov-1967,0,8.300,0,9.0,0,3.7,1.5,6.0
25-nov-1967,0,0.000,0,7.0,0,2.2,-0.5,4.5
26-nov-1967,0,1.700,0,9.2,1,-1.6,-6.6,1.5
27-nov-1967,0,0.500,0,10.8,1,-1.0,-4.8,5.2
28-nov-1967,0,4.300,0,11.0,0,8.7,5.8,7.2
29-nov-1967,0,5.000,0,11.5,0,4.2,0.5,4.4
30-nov-1967,0,0.300,0,12.0,0,5.3,3.2,8.0
01-dec-1967,4,0.000,0,12.2,0,7.5,6.0,8.2
02-dec-1967,4,0.000,0,12.2,0,7.2,6.8,8.0
03-dec-1967,4,0.000,0,10.0,0,5.3,-0.3,5.4
04-dec-1967,0,0.000,0,9.5,1,-1.0,-3.0,3.3
05-dec-1967,0,2.000,0,12.0,0,1.5,1.2,6.7
06-dec-1967,0,0.800,0,7.2,0,4.0,1.0,6.2
07-dec-1967,0,0.000,0,5.2,1,-0.5,-3.8,2.0
08-dec-1967,0,1.900,0,2.5,1,-2.5,-5.0,1.0
09-dec-1967,4,0.000,0,0.5,1,-3.0,-5.0,1.0
10-dec-1967,4,0.000,0,3.2,1,-4.5,-5.5,0.8
11-dec-1967,4,0.000,0,9.8,1,-4.0,-6.0,0.8
12-dec-1967,0,0.000,0,9.2,0,2.3,-0.5,4.2
13-dec-1967,4,0.000,0,13.5,0,6.0,4.0,5.0
14-dec-1967,0,0.000,0,12.7,0,5.3,3.8,5.0
15-dec-1967,0,1.500,0,9.6,0,5.0,4.0,5.0
16-dec-1967,0,0.000,0,6.2,0,4.5,3.2,5.5
17-dec-1967,0,0.000,0,7.0,1,-4.0,-8.0,1.5
18-dec-1967,0,8.900,0,8.5,3,-2.0,-1.5,3.6
19-dec-1967,0,0.000,0,8.0,0,4.6,2.6,5.4
20-dec-1967,0,1.200,0,10.7,1,-1.0,-4.0,2.4
21-dec-1967,0,1.000,0,14.8,0,4.2,-4.0,7.1
22-dec-1967,0,7.400,0,15.0,0,8.8,6.6,7.8
23-dec-1967,0,5.100,0,11.7,0,9.2,6.4,8.0
24-dec-1967,0,1.700,0,9.5,0,6.2,3.0,6.5
25-dec-1967,4,0.000,0,8.2,0,6.0,3.0,5.8
26-dec-1967,0,0.400,0,10.8,0,3.7,-0.5,4.2
27-dec-1967,0,0.500,0,13.2,0,4.0,0.0,7.2
28-dec-1967,0,0.000,0,6.8,0,1.5,-2.0,3.6
29-dec-1967,0,0.000,0,6.3,0,1.3,-1.3,2.2
30-dec-1967,0,0.000,0,9.0,0,2.5,-0.6,3.8
31-dec-1967,0,2.000,0,10.0,0,1.0,-2.6,2.6
01-jan-1968,4,0.000,0,8.7,0,3.0,1.5,5.5
02-jan-1968,0,3.400,0,9.5,0,3.0,-0.7,2.5
03-jan-1968,4,0.000,0,11.0,0,1.8,1.0,4.5
04-jan-1968,0,15.000,0,8.0,1,-2.3,-6.0,1.7
05-jan-1968,0,0.500,0,7.2,0,0.0,0.5,4.0
06-jan-1968,0,4.100,0,4.3,0,1.2, ,2.0
07-jan-1968,0,7.300,0,4.6,0,0.0,-3.0,1.0
08-jan-1968,0,23.200,0,8.1,1,-0.3,-2.0,2.2
09-jan-1968,0,0.000,0,5.6,0,1.5,-2.0,3.8
10-jan-1968,4,0.000,0,3.8,1,-5.0,-8.5,1.0
11-jan-1968,0,7.000,0,5.0,1,-5.0,-7.2,0.6
12-jan-1968,0,4.700,0,7.5,0,0.0,-0.5,1.0
13-jan-1968,0,5.200,0,12.2,0,1.2,0.0,4.2
14-jan-1968,0,1.000,0,13.5,0,6.6,6.0,7.0
15-jan-1968,0,9.600,0,11.0,0,6.8,4.0,5.5
16-jan-1968,0,0.700,0,12.7,0,5.5,4.0,7.2
17-jan-1968,0,0.600,0,11.0,0,5.0,2.4,5.0
18-jan-1968,0,0.000,0,13.0,0,4.4,-0.4,6.8
19-jan-1968,0,0.000,0,12.6,0,7.5,4.0,7.0
20-jan-1968,0,0.000,0,9.2,0,4.0,-0.7,4.5
21-jan-1968,0,0.000,0,9.0,0,3.3,3.2,6.2
22-jan-1968,0,0.000,0,8.7,0,5.2,5.0,6.2
23-jan-1968,0,0.000,0,9.5,0,3.8,1.5,5.0
24-jan-1968,0,0.000,0,8.7,0,2.5,-1.0,3.7
25-jan-1968,0,0.000,0,9.2,0,5.0,3.5,5.4
26-jan-1968,0,0.000,0,9.2,0,6.5,4.5,6.0
27-jan-1968,0,1.500,0,10.8,0,4.2,2.5,4.8
28-jan-1968,0,0.000,0,7.7,1,-0.5,-2.2,3.0
29-jan-1968,0,0.500,0,12.0,0,2.0,-2.5,4.0
30-jan-1968,4,0.000,0,14.0,0,5.7,4.0,7.4
31-jan-1968,0,1.700,0,11.4,0,10.0,9.0,8.5
01-feb-1968,4,0.000,0,8.5,0,1.0,-1.8,3.0
02-feb-1968,0,0.000,0,6.8,0,1.2,-1.5,3.0
03-feb-1968,0,6.400,0,7.0,1,-1.0,-4.4,1.5
04-feb-1968,0,4.500,0,8.0,1,-1.5,-5.0,2.8
05-feb-1968,0,0.000,0,4.0,1,-0.7,-4.3,1.4
06-feb-1968,0,0.300,0,2.2,1,-4.5,-6.5,0.6
07-feb-1968,0,0.000,0,5.0,1,-3.5,-4.5,0.3
08-feb-1968,0,0.000,0,3.0,1,-1.6,-4.0,0.0
09-feb-1968,0,1.600,0,5.0,1,-2.8, ,1.2
10-feb-1968,0,0.000,0,6.0,1,-1.6,-0.6,3.0
11-feb-1968,0,1.500,0,5.0,0,4.0,3.0,3.2
12-feb-1968,0,0.000,0,10.0,0,3.5,2.8,3.5
13-feb-1968,0,0.800,0,8.6,0,1.8,-0.5,3.8
14-feb-1968,0,0.000,0,6.0,0,2.5,3.3,4.5
15-feb-1968,0,0.000,0,6.2,0,1.0,-1.8,3.3
16-feb-1968,0,0.000,0,7.0,1,-2.0,-4.8,2.0
17-feb-1968,0,0.000,0,10.5,0,1.0,1.0,3.3
18-feb-1968,0,0.000,0,7.8,1,-3.0,-5.5,1.5
19-feb-1968,0,0.000,0,8.3,1,-1.8,-1.8,1.8
20-feb-1968,0,0.000,0,6.0,1,-2.7,-6.3,1.2
21-feb-1968,0,0.000,0,4.5,1,-3.3,-5.2,1.0
22-feb-1968,0,0.000,0,5.8,1,-1.5,-3.0,1.0
23-feb-1968,0,0.000,0,5.6,1,-2.0,-4.5,0.8
24-feb-1968,0,1.700,0,2.3,1,-4.5,-7.0,0.5
25-feb-1968,0,0.000,0,5.2,1,-2.5,-7.0,0.3
26-feb-1968,0,0.000,0,6.7,1,-3.5,-6.8,0.3
27-feb-1968,4,0.000,0,6.6,1,-4.0,-6.5,0.4
28-feb-1968,0,0.000,0,7.6,1,-2.5,-1.5,0.5
29-feb-1968,0,0.000,0,12.0,1,-1.5,-1.2,2.2
01-mar-1968,0,0.000,0,6.0,1,-1.8,-5.5,1.5
02-mar-1968,4,0.000,0,9.7,0,0.5,-2.5,1.8
03-mar-1968,0,0.000,0,10.0,0,0.4,-1.0,2.4
04-mar-1968,0,0.000,0,10.2,0,1.0,-4.7,1.3
05-mar-1968,0,0.000,0,14.0,0,3.8,-0.2,4.3
06-mar-1968,0,0.000,0,10.4,0,6.2,3.5,5.3
07-mar-1968,0,0.000,0,7.4,1,-3.0,-6.2,1.7
08-mar-1968,0,0.000,0,8.5,1,-2.0,-4.0,2.4
09-mar-1968,0,0.000,0,10.4,0,2.0,1.2,4.5
10-mar-1968,0,0.000,0,11.5,0,4.4,1.6,5.5
11-mar-1968,0,0.000,0,12.5,0,7.3,6.4,6.3
12-mar-1968,0,0.000,0,11.3,0,6.2,5.5,6.4
13-mar-1968,0,0.500,0,11.0,0,5.6,3.2,6.0
14-mar-1968,0,1.500,0,9.5,0,4.2,2.8,5.3
15-mar-1968,0,1.500,0,8.0,0,2.3,0.0,4.0
16-mar-1968,0,3.400,0,12.8,1,-0.5,-3.5,2.8
17-mar-1968,0,5.400,0,7.5,0,1.0,0.0,3.4
18-mar-1968,0,2.300,0,9.0,0,2.3,0.5,3.2
19-mar-1968,0,15.000,0,10.4,0,2.8,0.5,4.8
20-mar-1968,0,0.600,0,8.4,0,1.5,1.5,4.2
21-mar-1968,0,1.000,0,7.8,0,0.4,-1.0,3.0
22-mar-1968,0,7.200,0,12.0,0,0.5,-3.0,2.5
23-mar-1968,0,16.000,0,11.4,0,3.0,2.4,7.6
24-mar-1968,4,0.000,0,11.0,0,3.0,1.2,6.0
25-mar-1968,0,4.000,0,11.0,0,1.8,-1.3,4.2
26-mar-1968,0,0.000,0,12.3,0,3.7,0.8,4.8
27-mar-1968,0,0.000,0,13.0,0,8.5,8.7,8.2
28-mar-1968,0,0.000,0,17.4,0,2.5,-0.5,5.2
29-mar-1968,0,0.000,0,10.5,0,6.0,3.4,7.5
30-mar-1968,0,0.000,0,12.0,1,-0.6, ,4.0
31-mar-1968,0,2.200,0,11.5,0,4.0,1.0,5.7
01-apr-1968,0,0.900,0,12.8,0,8.0,7.0,7.4
02-apr-1968,4,0.000,0,5.0,1,-2.0,-3.5,3.7
03-apr-1968,0,1.500,0,7.6,0,0.0,-2.0,3.2
04-apr-1968,0,0.000,0,7.5,1,-1.7,-4.2,2.6
05-apr-1968,0,0.300,0,10.0,1,-3.0,-7.0,2.2
06-apr-1968,0,0.000,0,11.4,1,-2.2,-6.8,2.5
07-apr-1968,0,0.000,0,6.5,1,-1.5,-5.0,4.0
08-apr-1968,0,0.000,0,11.0,1,-5.0,-8.5,2.0
09-apr-1968,0,0.000,0,13.5,1,-0.5,-4.0,4.7
10-apr-1968,0,0.000,0,12.8,1,-2.6,-5.5,4.3
11-apr-1968,0,0.000,0,11.7,1,-2.5,-5.5,4.2
12-apr-1968,0,0.000,0,10.2,1,-0.8,-4.8,4.5
13-apr-1968,0,0.000,0,11.3,1,-2.2,-5.5,4.5
14-apr-1968,0,0.000,0,10.8,0,2.5,-1.2,6.0
15-apr-1968,0,6.200,0,13.0,0,3.0,-0.5,5.8
16-apr-1968,0,9.500,0,12.6,0,7.8,6.8,8.4
17-apr-1968,0,12.500,0,12.8,0,7.0,6.0,7.8
18-apr-1968,0,0.600,0,13.8,0,6.0,4.5,8.0
19-apr-1968,0,16.700,0,13.4,0,8.6,8.0,9.4
20-apr-1968,0,1.200,0,14.0,0,5.4,2.2,8.5
21-apr-1968,0,2.300,0,14.2,0,7.5,5.4,8.8
22-apr-1968,4,0.000,0,13.2,0,6.5,3.5,9.4
23-apr-1968,0,1.900,0,14.7,0,7.0,4.7,9.8
24-apr-1968,0,0.000,0,15.8,0,5.0,1.5,9.5
25-apr-1968,0,0.000,0,14.2,0,5.8,3.8,9.7
26-apr-1968,0,4.800,0,13.6,0,6.0,2.3,9.3
27-apr-1968,0,3.600,0,13.8,0,9.0,8.5,10.0
28-apr-1968,0,3.400,0,13.2,0,6.8,5.0,10.3
29-apr-1968,0,11.200,0,12.8,0,1.0,-1.0,8.5
30-apr-1968,0,0.300,0,11.8,0,6.5,6.0,9.4
01-may-1968,4,0.000,0,17.8,0,2.8,-1.0,11.0
02-may-1968,0,1.000,0,14.7,0,4.0, ,9.2
03-may-1968,0,6.600,0,12.7,0,6.8,5.3,10.3
04-may-1968,0,0.200,0,13.3,0,4.2,1.5,9.4
05-may-1968,0,9.600,0,10.5,0,3.0,-0.4,9.0
06-may-1968,0,0.300,0,9.8,0,3.5,3.0,7.5
07-may-1968,0,0.000,0,10.5,0,1.0,-1.0,6.8
08-may-1968,0,0.000,0,9.9,0,0.5,-1.5,7.0
09-may-1968,0,1.300,0,12.6,0,1.5,-1.0,7.0
10-may-1968,0,1.100,0,12.5,0,7.5,5.7,9.0
11-may-1968,0,0.200,0,12.2,0,6.4,4.8,8.5
12-may-1968,0,3.500,0,14.0,0,2.5,-1.0,8.2
13-may-1968,0,1.000,0,14.8,0,5.5,4.5,10.0
14-may-1968,0,0.400,0,16.5,0,7.3,4.0,10.7
15-may-1968,0,0.000,0,16.5,0,10.0,8.2,11.8
16-may-1968,0,0.000,0,15.0,0,7.5,5.3,11.0
17-may-1968,0,0.000,0,14.4,0,4.0, ,11.0
18-may-1968,0,0.000,0,12.5,0,0.0,-3.2,9.0
19-may-1968,0,0.000,0,13.7,1,-1.2,-5.2,9.7
20-may-1968,0,0.000,0,12.0,0,2.0,-1.3,10.2
21-may-1968,0,0.000,0,12.4,0,1.0,-3.2,9.7
22-may-1968,0,0.000,0,12.0,0,5.6,-0.5,10.5
23-may-1968,0,0.000,0,14.4,0,2.5,-2.0,10.3
24-may-1968,0,13.000,0,16.0,0,5.3,0.3,11.0
25-may-1968,4,0.000,0,16.5,0,10.5,10.0,12.0
26-may-1968,0,0.400,0,17.2,0,8.6,7.5,13.0
27-may-1968,0,0.000,0,18.0,0,8.4,5.6,13.2
28-may-1968,0,0.000,0,20.5,0,5.5,3.0,13.5
29-may-1968,0,0.000,0,21.2,0,8.2,5.0,15.0
30-may-1968,0,4.600,0,19.8,0,7.0,3.0,15.2
31-may-1968,0,0.000,0,17.5,0,11.0,10.0,14.2
01-jun-1968,0,0.000,0,19.2,0,9.4,7.0,14.4
02-jun-1968,0,1.800,0,14.5,0,9.2,8.0,13.8
03-jun-1968,4,0.000,0,20.6,0,8.5,6.0,13.8
04-jun-1968,0,0.000,0,14.8,0,10.4,7.0,14.5
05-jun-1968,0,1.700,0,16.5,0,8.0,4.5,14.0
06-jun-1968,4,0.000,0,15.7,0,5.0,0.8,11.8
07-jun-1968,0,0.000,0,15.2,0,8.0,6.0,12.2
08-jun-1968,4,0.000,0,17.5,0,9.0,6.2,13.2
09-jun-1968,0,0.000,0,22.4,0,5.5,1.0,14.5
10-jun-1968,0,0.000,0,23.0,0,7.6,3.5,17.3
11-jun-1968,0,0.000,0,23.4,0,8.5,5.0,18.6
12-jun-1968,0,0.000,0,24.2,0,9.0,5.5,18.8
13-jun-1968,0,0.000,0,23.0,0,10.5,7.4,18.3
14-jun-1968,0,0.000,0,23.5,0,6.5,4.5,18.4
15-jun-1968,0,0.000,0,24.0,0,10.5,8.5,17.5
16-jun-1968,0,0.000,0,23.5,0,7.5,3.5,18.5
17-jun-1968,0,0.000,0,20.0,0,10.0,5.6,19.0
18-jun-1968,0,0.000,0,20.0,0,9.5,5.6,17.8
19-jun-1968,0,9.300,0,18.2,0,9.0,5.2,17.6
20-jun-1968,0,3.300,0,16.5,0,6.0,2.2,14.4
21-jun-1968,0,4.100,0,16.9,0,8.0,5.0,13.4
22-jun-1968,0,3.300,0,17.7,0,9.3,6.5,14.0
23-jun-1968,0,0.300,0,16.7,0,9.5,7.8,14.0
24-jun-1968,0,1.500,0,17.0,0,8.2,5.5,14.0
25-jun-1968,0,3.400,0,20.0,0,12.3,9.3,15.3
26-jun-1968,0,14.200,0,17.0,0,10.0,7.0,15.0
27-jun-1968,0,1.000,0,18.6,0,10.2,9.0,14.4
28-jun-1968,0,7.500,0,17.9,0,11.0,9.5,15.5
29-jun-1968,0,0.400,0,17.4,0,11.0,9.8,14.6
30-jun-1968,0,0.400,0,17.8,0,13.5,12.5,15.0
01-jul-1968,0,3.500,0,16.2,0,11.0,8.2,15.0
02-jul-1968,0,0.000,0,15.0,0,10.6,8.0,14.4
03-jul-1968,0,0.400,0,16.6,0,7.8,5.5,12.0
04-jul-1968,0,0.000,0,16.8,0,9.3,6.0,13.0
05-jul-1968,0,0.000,0,18.6,0,6.8,5.0,14.0
06-jul-1968,0,0.000,0,17.8,0,9.2,6.0,16.0
07-jul-1968,0,0.000,0,20.0,0,10.0,6.7,16.4
08-jul-1968,0,0.000,0,25.0,0,7.8,4.0,16.0
09-jul-1968,0,0.000,0,21.0,0,10.0,6.5,17.2
10-jul-1968,0,0.500,0,22.0,0,8.5,4.8,17.4
11-jul-1968,0,0.000,0,18.8,0,10.5,8.7,16.0
12-jul-1968,0,0.000,0,17.3,0,10.0,6.5,16.7
13-jul-1968,0,21.100,0,18.0,0,6.0,1.3,15.7
14-jul-1968,0,0.700,0,16.3,0,12.0,9.5,15.2
15-jul-1968,0,4.600,0,16.5,0,9.0,5.0,13.6
16-jul-1968,4,0.000,0,17.0,0,10.0,7.6,14.5
17-jul-1968,0,0.000,0,21.0,0,8.5,5.4,14.0
18-jul-1968,4,0.000,0,20.0,0,8.8,4.8,15.0
19-jul-1968,0,0.500,0,21.5,0,13.2,10.5,17.7
20-jul-1968,0,0.000,0,23.7,0,15.5,13.0,18.7
21-jul-1968,0,0.000,0,24.0,0,12.0,7.6,19.0
22-jul-1968,0,0.000,0,20.4,0,11.2,7.0,18.8
23-jul-1968,0,0.000,0,19.4,0,10.4,5.5,17.4
24-jul-1968,0,0.000,0,19.2,0,8.8,4.0,15.0
25-jul-1968,0,0.000,0,19.2,0,7.0,2.0,16.2
26-jul-1968,0,0.000,0,20.5,0,8.0,3.2,17.5
27-jul-1968,0,0.000,0,23.0,0,9.0,4.5,17.0
28-jul-1968,0,0.000,0,23.3,0,8.4,4.8,17.4
29-jul-1968,0,0.000,0,20.4,0,8.0,4.0,17.0
30-jul-1968,0,0.000,0,19.4,0,6.0,1.5,16.0
31-jul-1968,0,0.000,0,21.4,0,6.6,2.2,16.3
01-aug-1968,0,1.400,0,21.0,0,7.5,2.3,16.4
02-aug-1968,0,5.100,0,22.3,0,8.0,4.0,16.0
03-aug-1968,0,0.300,0,22.8,0,10.0,3.5,17.2
04-aug-1968,0,0.000,0,22.2,0,7.0,6.0,16.2
05-aug-1968,0,0.000,0,21.2,0,7.3,5.8,16.8
06-aug-1968,0,0.000,0,19.4,0,10.5,7.0,17.0
07-aug-1968,0,0.000,0,22.2,0,9.5,6.0,16.0
08-aug-1968,0,0.000,0,20.0,0,8.4,3.0,16.4
09-aug-1968,0,0.000,0,21.3,0,9.5,5.0,16.7
10-aug-1968,0,0.000,0,22.8,0,9.0,5.5,16.7
11-aug-1968,0,0.000,0,24.8,0,6.0,2.5,17.2
12-aug-1968,0,2.000,0,18.0,0,9.8,5.0,18.5
13-aug-1968,0,2.000,0,22.0,0,13.0,9.0,16.5
14-aug-1968,0,3.200,0,19.4,0,12.5,9.0,16.3
15-aug-1968,0,1.300,0,19.8,0,8.5,2.0,14.5
16-aug-1968,0,6.700,0,16.7,0,7.0,1.0,14.0
17-aug-1968,0,3.200,0,18.6,0,9.5,6.0,14.4
18-aug-1968,0,23.300,0,18.5,0,6.5,0.0,12.6
19-aug-1968,0,2.300,0,19.3,0,10.6,5.0,14.0
20-aug-1968,0,0.000,0,22.5,0,14.0,9.3,16.2
21-aug-1968,0,0.000,0,19.8,0,13.6,8.8,16.5
22-aug-1968,0,3.600,0,20.6,0,16.4,12.4,17.0
23-aug-1968,0,0.000,0,21.0,0,12.6,10.0,16.6
24-aug-1968,0,0.000,0,19.0,0,10.5,6.5,15.0
25-aug-1968,0,0.000,0,19.6,0,11.0,5.0,15.2
26-aug-1968,0,0.000,0,18.0,0,8.0,3.0,14.2
27-aug-1968,0,0.000,0,21.2,0,9.5,4.5,15.2
28-aug-1968,0,0.000,0,19.0,0,11.5,7.5,15.5
29-aug-1968,0,0.000,0,17.8,0,12.4,7.8,15.5
30-aug-1968,0,6.100,0,18.0,0,7.5,2.5,14.6
31-aug-1968,0,0.800,0,17.4,0,7.7,2.0,13.6
01-sep-1968,0,0.700,0,17.3,0,7.5,3.0,13.4
02-sep-1968,0,2.000,0,17.8,0,9.0,4.0,13.7
03-sep-1968,0,1.200,0,17.0,0,4.5,-0.5,11.7
04-sep-1968,0,7.000,0,19.0,0,9.5,2.7,13.0
05-sep-1968,0,5.000,0,21.0,0,10.5,5.0,14.0
06-sep-1968,4,0.000,0,19.0,0,6.0,-0.3,12.5
07-sep-1968,0,6.200,0,17.7,0,5.4,-0.2,12.3
08-sep-1968,0,3.200,0,18.7,0,13.8,10.0,14.5
09-sep-1968,0,7.800,0,21.0,0,14.3,11.4,15.3
10-sep-1968,0,0.500,0,20.0,0,11.5,7.5,15.0
11-sep-1968,0,0.400,0,20.0,0,9.2,3.5,14.2
12-sep-1968,0,0.100,0,19.2,0,7.5,3.0,13.3
13-sep-1968,0,9.000,0,15.0,0,9.3,4.3,14.0
14-sep-1968,4,0.000,0,15.5,0,11.4,7.5,14.0
15-sep-1968,0,0.000,0,16.0,0,10.0,4.8,12.5
16-sep-1968,0,0.000,0,15.2,0,5.6,0.7,10.6
17-sep-1968,0,0.000,0,17.4,0,5.6,0.1,10.8
18-sep-1968,0,1.600,0,17.2,0,2.8,-2.0,10.8
19-sep-1968,0,14.000,0,15.3,0,9.8,3.5,12.7
20-sep-1968,0,0.800,0,15.4,0,11.4,8.0,13.0
21-sep-1968,4,0.000,0,15.2,0,9.2,4.4,11.7
22-sep-1968,0,3.100,0,17.0,0,8.4,2.8,11.8
23-sep-1968,4,0.000,0,17.6,0,10.0,5.2,12.4
24-sep-1968,4,0.000,0,16.2,0,10.8,5.4,12.3
25-sep-1968,0,9.000,0,16.4,0,7.8,2.8,12.0
26-sep-1968,0,8.300,0,17.5,0,8.8,1.4,12.4
27-sep-1968,0,8.800,0,14.0,0,9.6,5.0,12.3
28-sep-1968,0,10.600,0,14.7,0,10.0,5.0,11.2
29-sep-1968,4,0.000,0,15.7,0,10.3,5.0,11.8
30-sep-1968,4,0.000,0,17.2,0,9.6,3.5,12.4
01-oct-1968,0,3.200,0,16.4,0,12.5,8.3,12.7
02-oct-1968,4,0.000,0,17.4,0,12.6,9.0,13.2
03-oct-1968,0,2.000,0,19.8,0,14.0,11.0,14.5
04-oct-1968,0,0.000,0,17.3,0,11.5,5.8,13.5
05-oct-1968,4,0.000,0,16.7,0,12.4,9.0,14.0
06-oct-1968,4,0.000,0,16.4,0,8.2,3.3,12.5
07-oct-1968,4,0.000,0,11.0,0,6.4,2.7,11.8
08-oct-1968,0,2.600,0,16.0,0,6.5,3.0,11.5
09-oct-1968,0,17.500,0,16.6,0,7.0,3.0,12.4
10-oct-1968,0,0.200,0,16.4,0,9.2,5.0,12.0
11-oct-1968,0,3.200,0,17.6,0,11.0,7.0,13.5
12-oct-1968,0,0.200,0,15.4,0,9.8,5.3,11.0
13-oct-1968,0,0.800,0,14.8,0,8.8,4.5,10.4
14-oct-1968,0,0.000,0,13.5,0,5.5,1.8,9.0
15-oct-1968,0,2.300,0,14.0,0,5.2,0.0,9.0
16-oct-1968,4,0.000,0,12.8,0,5.0,1.3,8.6
17-oct-1968,0,4.200,0,13.5,0,7.4,3.8,9.5
18-oct-1968,0,2.800,0,15.5,0,8.0,3.5,10.9
19-oct-1968,0,12.500,0,16.0,0,11.0,8.5,12.8
20-oct-1968,4,0.000,0,16.6,0,11.0,7.0,12.0
21-oct-1968,4,0.000,0,17.0,0,7.8,3.2,11.2
22-oct-1968,0,0.000,0,16.8,0,12.0,10.0,13.0
23-oct-1968,0,0.000,0,15.4,0,7.3,1.3,11.6
24-oct-1968,0,0.000,0,13.3,0,10.8,8.0,12.0
25-oct-1968,0,0.000,0,12.4,0,7.5,2.0,11.0
26-oct-1968,0,1.500,0,14.8,0,7.5,2.5,10.6
27-oct-1968,0,8.700,0,15.0,0,10.8,6.0,11.6
28-oct-1968,0,4.500,0,14.8,0,10.6,7.2,11.8
29-oct-1968,0,2.000,0,14.0,0,7.0,2.5,9.7
30-oct-1968,0,4.000,0,16.0,0,9.0,7.5,12.0
31-oct-1968,0,4.900,0,15.3,0,11.5,8.0,12.2
01-nov-1968,0,23.300,0,13.8,0,7.0,1.6,10.5
02-nov-1968,4,0.000,0,8.0,0,6.2,3.5,9.4
03-nov-1968,0,0.000,0,6.4,1,-1.5,-5.0,5.0
04-nov-1968,0,0.000,0,9.0,1,-5.4,-8.2,3.0
05-nov-1968,0,0.000,0,10.0,1,-2.3,-3.2,6.0
06-nov-1968,4,0.000,0,9.2,0,5.5,-3.2,6.4
07-nov-1968,0,0.000,0,8.8,0,6.2,3.5,7.0
08-nov-1968,0,0.000,0,8.8,0,6.2,4.0,7.0
09-nov-1968,0,15.200,0,12.0,1,-1.0,-4.5,5.7
10-nov-1968,0,4.000,0,12.8,0,5.5,3.5,8.2
11-nov-1968,4,0.000,0,12.5,2,8.3,0.0,7.2
12-nov-1968,0,1.000,0,13.0,0,8.4,6.7,9.8
13-nov-1968,0,4.000,0,9.8,0,8.0,5.5,9.0
14-nov-1968,0,0.000,0,9.2,0,7.4,5.5,8.5
15-nov-1968,0,0.000,0,8.0,0,4.5,1.0,6.5
16-nov-1968,0,0.000,0,7.0,0,2.0,-3.3,4.3
17-nov-1968,0,0.000,0,6.2,1,-4.0,-7.3,2.8
18-nov-1968,4,0.000,0,7.3,1,-0.5,-1.5,4.6
19-nov-1968,0,9.400,0,10.7,0,2.5,-2.5,5.0
20-nov-1968,0,5.300,0,13.6,0,6.7,5.0,7.8
21-nov-1968,0,16.700,0,12.8,0,9.4,7.8,10.4
22-nov-1968,0,7.600,0,13.0,0,9.2,6.5,10.0
23-nov-1968,4,0.000,0,12.0,0,7.4,5.0,9.5
24-nov-1968,0,1.100,0,13.0,0,3.3,-1.2,5.6
25-nov-1968,4,0.000,0,13.8,0,6.0,2.5,9.2
26-nov-1968,0,0.300,0,9.0,0,4.0,1.0,6.5
27-nov-1968,0,0.600,0,11.5,0,5.0,2.5,7.2
28-nov-1968,0,0.400,0,12.2,0,7.8,6.4,8.5